COSMOS 793

Satellite information

Favourite Embed

Satellite Type and Status

PAYLOADIN ORBIT

Key statistics

Satellite COSMOS 793 at a glance.

Uptime

18121

Days in orbit

Revolutions

≈ 12.5

Per day

Orbit

LEO

Low Earth Orbit

Inclination

74.1

Latest

Satellite identification and parameters

Extended collection of information and parameters for COSMOS 793.

Object identification

Identified? True

Debris? False

Object name: COSMOS 793

International designator: 1976-008C

Object number (NORAD): 8609

Object ID (CCSDS): 8609

Country: COMMONWEALTH OF INDEPENDENT STATES (CIS)

Current information (Y/N): Y

RCS size: MEDIUM

Orbital parameters

Period: 114.957 minutes

Inclination: 74.0516 deg

SMA: 7831.606 km

Apoapsis: 1489.319 km

Periapsis: 1417.623 km

RAAN: 259.7215 deg

Eccentricy: 0.00457736

Argument of periapsis: 68.4128 deg

Mean anomaly: 47.2086 deg

Mean motion: 12.52640593 rev/day

Mean motion (dot): -0.00000003 rev/day2

B* drag term: 0.000080587618 1/REarth

Two-line elements (TLE)

Creation date: Sept. 8, 2025, 3:16 a.m.

Reference frame: TEME

Reference center: EARTH

Epoch: Sept. 7, 2025, 12:22 p.m. UTC

TLE line 0: 0 COSMOS 793

TLE line 1: 1 08609U 76008C 25250.51569865 -.00000003 00000-0 80588-4 0 9990

TLE line 2: 2 08609 74.0516 259.7215 0045774 68.4128 47.2086 12.52640593268544

Live tracking on map

Real-time ground track for satellite COSMOS 793.

In-orbit conjunctions

There are no conjunctions computed for COSMOS 793, at the moment. Check back to stay up to date, as we update our databases every day.

Go to all conjunctions

Associated space launch

Military communications satellites

COSMOS 793 was lifted into orbit during the mission ‘Kosmos-3M | Strela-1M 105-112’, on board a Kosmos-3M space rocket.

The launch took place on Jan. 28, 1976, 10:39 a.m. from 132/1 (132L).

For more information about the launch, click the button.

Launch to space Kosmos-3M | Strela-1M 105-112
Kosmos-3M | Strela-1M 105-112

Agency: N/A

Status: Launch Successful

Launch date: Jan. 28, 1976, 10:39 a.m. UTC

Rocket: Kosmos-3M

Launch pad: 132/1 (132L)

Location: Plesetsk Cosmodrome, Russian Federation

...

Latest news about this satellite

There are no fresh news available about this satellite. Check back as we update our databases every day.


Newsletter sign-up

Weekly statistics, charts and insights to help you stay on top of the space industry.